#timestamp,LO_Frequency,Hit 
1502121615.5,286047011.0,N
1502121635.4,286047013.1,P
1502121655.2,286047001.0,P
1502121675.1,286046998.3,N
1502121676.0,286046998.3,N
1502121695.8,286046998.7,N
1502121715.6,286046995.7,N
1502121735.4,286046992.6,N
1502121755.3,286046988.4,N
1502121775.1,286046978.9,N
1502121795.8,286046978.7,N
1502121815.7,286046973.5,N
1502121835.5,286046970.5,N
1502121855.3,286046967.6,N
1502121875.2,286046961.4,N
1502121895.9,286046961.0,N
1502121915.7,286046958.7,N
1502121935.6,286046960.1,N
1502121955.4,286046961.6,N
1502121975.2,286046962.9,N
1502121995.1,286046967.5,N
1502121996.0,286046967.5,N
1502122015.9,286046966.4,N
1502122035.7,286046967.8,N
1502122055.5,286046971.9,N
1502122075.3,286046972.2,N
1502122095.2,286046973.9,N
1502122115.0,286046975.0,N
1502122115.9,286046975.0,N
1502122135.7,286046971.7,N
1502122155.6,286046969.1,N
1502122175.4,286046967.4,N
1502122195.2,286046964.9,N
1502122215.1,286046963.5,P
1502122216.0,286046963.5,P
1502122235.8,286046989.7,N
1502122255.6,286046987.6,N
1502122275.5,286046991.1,N
1502122295.3,286046990.2,N
1502122315.1,286046996.4,N
1502122335.9,286046998.3,N
1502122355.7,286046998.8,N
1502122375.5,286047003.9,N
1502122395.4,286047003.3,N
1502122415.2,286047005.3,N
1502122435.0,286047003.7,N
1502122435.9,286047003.7,N
1502122455.8,286047003.3,N
1502122475.6,286047004.1,N
1502122495.4,286047007.6,N
1502122515.3,286047008.9,N
1502122535.1,286047006.5,N
1502122536.0,286047006.5,N
1502122555.8,286047007.6,N
1502122575.7,286047005.4,N
1502122595.5,286047007.3,N
1502122615.3,286047006.7,N
1502122635.2,286047006.7,N
1502122655.9,286047010.8,N
1502122675.7,286047009.7,N
1502122695.5,286047012.6,N
1502122715.4,286047014.1,N
1502122735.2,286047014.3,N
1502122755.0,286047011.7,N
1502122755.9,286047011.7,N
1502122775.8,286047013.7,N
1502122795.6,286047011.3,N
1502122815.4,286047006.3,N
1502122835.3,286047010.4,N
1502122855.1,286047012.6,N
1502122875.8,286047016.6,P
1502122895.7,286047009.3,N
1502122915.5,286047010.3,N
1502122935.3,286047009.3,N
1502122955.2,286047009.9,P
1502122975.0,286047005.5,P
1502122975.9,286047005.5,N
1502122995.8,286047010.0,P
1502123015.6,286047010.4,P
1502123035.4,286047011.9,P
1502123055.3,286047014.2,P
1502123075.1,286047003.1,N
1502123076.0,286047003.1,N
1502123095.8,286047004.9,N
1502123115.7,286047009.0,N
1502123135.5,286047010.4,N
1502123155.3,286047009.5,N
1502123175.2,286047009.4,N
1502123195.9,286047011.8,P
1502123215.7,286047003.0,N
1502123235.6,286047001.4,N
1502123255.4,286046998.8,N
1502123275.2,286046995.1,N
1502123295.1,286046996.2,N
1502123296.0,286046996.2,N
1502123315.8,286046996.5,N
1502123335.6,286047001.2,N
1502123355.5,286046998.8,N
1502123375.3,286046999.4,N
1502123395.1,286046997.0,N
1502123415.8,286046994.4,N
1502123435.7,286046993.7,N
1502123455.5,286046993.9,N
1502123475.3,286046992.6,N
1502123495.2,286046994.3,N
1502123515.0,286046995.9,N
1502123515.9,286046995.9,N
1502123535.7,286046997.7,N
1502123555.6,286047000.4,N
1502123575.4,286047001.0,N
1502123595.2,286047000.4,N
1502123615.1,286047000.9,N
1502123616.0,286047000.9,N
1502123635.8,286047002.7,N
1502123655.6,286047002.0,N
1502123675.5,286047006.0,N
1502123695.3,286047002.2,N
1502123715.1,286047001.0,N
1502123735.9,286047000.7,N
1502123755.7,286046999.0,N
1502123775.5,286046993.9,N
1502123795.4,286046988.7,P
1502123815.2,286046988.4,N
1502123835.0,286046984.4,P
1502123835.9,286046984.4,P
1502123855.8,286046990.1,P
1502123875.6,286046989.1,P
1502123895.5,286046988.7,P
1502123915.3,286047002.2,P
1502123935.1,286046998.3,N
1502123955.8,286046999.1,N
1502123975.7,286046996.6,N
1502123995.5,286046996.7,N
1502124015.3,286046997.8,N
1502124035.2,286046999.5,N
1502124055.9,286046997.8,N
1502124075.7,286046994.6,N
1502124095.6,286046991.6,N
1502124115.4,286046991.0,N
1502124135.2,286046991.2,N
1502124155.1,286046987.2,P
1502124156.0,286046987.2,P
1502124175.8,286046992.8,N
1502124195.6,286046990.6,N
1502124215.5,286046991.6,N
1502124235.3,286046989.9,P
1502124255.1,286046997.5,P
1502124275.9,286047001.2,N
1502124295.7,286047001.2,N
1502124315.5,286047002.5,N
1502124335.4,286047002.2,N
1502124355.2,286047000.3,N
1502124375.0,286047002.1,N
1502124375.9,286047002.1,N
1502124395.8,286047000.1,N
1502124415.6,286047003.8,N
1502124435.4,286047004.5,N
1502124455.3,286047003.8,N
1502124475.1,286047001.5,N
1502124476.0,286047001.5,N
1502124495.8,286047002.5,N
1502124515.7,286047002.4,N
1502124535.5,286047000.2,N
1502124555.3,286046998.8,N
1502124575.1,286046999.2,N
1502124595.9,286046998.7,N
1502124615.7,286047002.2,N
1502124635.5,286047006.0,N
1502124655.4,286047003.7,N
1502124675.2,286047000.4,N
1502124695.0,286046998.9,N
1502124695.9,286046998.9,N
1502124715.8,286046999.4,N
1502124735.6,286046995.3,N
1502124755.4,286046994.4,N
1502124775.3,286046993.7,N
1502124795.1,286046995.0,N
1502124796.0,286046995.0,N
1502124815.8,286046999.4,N
1502124835.7,286047000.8,N
1502124855.5,286047000.7,N
1502124875.3,286047000.6,N
1502124895.2,286047001.8,N
1502124915.9,286047005.3,N
1502124935.7,286047007.1,N
1502124955.6,286047008.2,N
1502124975.4,286047009.7,N
1502124995.2,286047013.5,P
1502125015.1,286047012.7,N
1502125016.0,286047012.7,N
1502125035.8,286047017.2,P
1502125055.6,286047007.3,N
1502125075.5,286047006.9,N
1502125095.3,286047008.6,N
1502125115.1,286047010.5,N
1502125135.9,286047009.8,N
1502125155.7,286047004.5,N
1502125175.5,286047005.6,N
1502125195.4,286047008.4,N
